Regional Weather Roundup
Issued by NWS

Home | Current Version | Previous Version | Text Only | Print | Product List | Glossary Off
Versions: 1 2 3 4 5 6 7 8 9 10 11 12 13 14 15 16 17 18 19 20 21 22 23 24 25 26 27 28 29 30 31 32 33 34 35 36 37 38 39 40 41 42 43 44 45 46 47 48 49 50

000
ASUS43 KLSX 231910
RWRMO

WEATHER SUMMARY FOR MISSOURI
NATIONAL WEATHER SERVICE SPRINGFIELD MO
200 PM CDT FRI JUN 23 2017

NOTE: "FAIR" INDICATES FEW OR NO CLOUDS BELOW 12,000 FEET WITH NO
       SIGNIFICANT WEATHER AND/OR OBSTRUCTIONS TO VISIBILITY.
       CURRENT SKY AND/OR WEATHER CONDITIONS ARE NOT AVAILABLE FOR
       CHILLICOTHE AND FARMINGTON.

MOZ001>031-035>038-043-044-053-054-232000-
...NORTHERN AND WESTERN MISSOURI...

CITY           SKY/WX    TMP DP  RH WIND       PRES   REMARKS
KANSAS CTY INT PTSUNNY   78  56  46 N20G31    29.94R
KANSAS C DTWN  SUNNY     83  54  36 N14G23    29.91R
LEE`S SUMMIT   SUNNY     83  53  35 N18G29    29.92R
ST JOSEPH      MOSUNNY   78  53  41 N25G35    29.96R
CHILLICOTHE      N/A     81  55  40 NW13G23   29.90R
KIRKSVILLE     SUNNY     80  55  42 N16       29.87R

$$
MOZ066>068-077>081-088>096-101>105-232000-
...SOUTHWEST MISSOURI...

CITY           SKY/WX    TMP DP  RH WIND       PRES   REMARKS
SPRINGFIELD    LGT RAIN  71  71 100 N14       29.85F
JOPLIN         PTSUNNY   78  71  79 N13G23    29.90R
BRANSON        TSTM      66  66 100 N8        29.89R

$$
MOZ032>034-039>042-045>050-055>058-069>072-232000-
...CENTRAL MISSOURI...

CITY           SKY/WX    TMP DP  RH WIND       PRES   REMARKS
COLUMBIA       CLOUDY    80  53  39 NE16      29.83R
JEFFERSON CITY CLOUDY    80  54  40 N5        29.81S
ROLLA          CLOUDY    77  61  57 N15G22    29.82R
SEDALIA        CLOUDY    80  63  55 N9        29.89R
WHITEMAN AFB   PTSUNNY   82  57  41 N15       29.88R
WARRENSBURG    MOSUNNY   82  52  34 N12G21    29.89R
OSAGE BEACH    CLOUDY    73  63  70 CALM      29.84S

$$
MOZ051-052-059>065-232000-
...EAST CENTRAL MISSOURI...

CITY           SKY/WX    TMP DP  RH WIND       PRES   REMARKS
ST LOUIS INTL  MOSUNNY   85  68  56 N17       29.74R
SPIRIT OF STL  PTSUNNY   84  66  54 N17       29.75R
ST CHARLES     SUNNY     85  61  44 N18G29    29.74R

$$
MOZ072>076-082>087-097>100-106>115-232000-
...SOUTH CENTRAL AND SOUTHEAST MISSOURI...

CITY           SKY/WX    TMP DP  RH WIND       PRES   REMARKS
CAPE GIRARDEAU MOSUNNY   81  74  79 W6        29.68S
FARMINGTON     MOSUNNY   84  69  60 NW15G21   29.75R
POPLAR BLUFF   MOSUNNY   88  75  65 NW7       29.70S HX  97
WEST PLAINS    TSTM      81  72  74 NW9       29.82R

$$




USA.gov is the U.S. government's official web portal to all federal, state and local government web resources and services.